Weather History for Burnet, TX

Change the Weather History Date:

Sunday, April 28, 2013

  Actual Average Record
Temperature  
Mean Temperature 75 °F -  
Max Temperature 87 °F 79 °F 91 °F (2002)
Min Temperature 63 °F 58 °F 44 °F (2008)
Cooling Degree Days 10    
Growing Degree Days 25 (Base 50)    
Moisture  
Dew Point 59 °F    
Average Humidity 69    
Maximum Humidity 94    
Minimum Humidity 32    
Precipitation  
Precipitation 0.00 in - - ()
Sea Level Pressure  
Sea Level Pressure 29.97 in    
Wind  
Wind Speed 6 mph (SSE)    
Max Wind Speed 10 mph    
Max Gust Speed -    
Visibility 10 miles    
Events      
Averages and records for this station are not official NWS values.
T = Trace of Precipitation, MM = Missing Value Source: NWS Daily Summary

Daily Weather History Graph

Daily Weather History Graph

Search for Another Location

Airport:

Trip Planner

Search our weather history database for the weather conditions in past years. The results will help you decide how hot, cold, wet, or windy it might be!

Date:

Astronomy

Apr. 28, 2013 Rise Set
Actual Time 6:51 AM CDT 8:09 PM CDT
Civil Twilight 6:26 AM CDT 8:35 PM CDT
Nautical Twilight 5:55 AM CDT 9:05 PM CDT
Astronomical Twilight 5:24 AM CDT 9:36 PM CDT
Moon 11:34 PM CDT (4/28) 9:16 AM CDT (4/28)
Length of Visible Light 14h 09m
Length of Day
13h 18m
Waning Gibbous, 88% of the Moon is Illuminated
Apr 28
Waning Gibbous
May 2
Last Quarter
May 9
New
May 17
First Quarter
May 24
Full

Hourly Weather History & Observations

Time (CDT) Temp. Heat Index Dew Point Humidity Pressure Visibility Wind Dir Wind Speed Gust Speed Precip Events Conditions
12:36 AM 69.1 °F - 57.0 °F 65% 30.07 in 10.0 mi ENE 6.9 mph - N/A   Overcast
12:53 AM 69.1 °F - 57.0 °F 65% 30.02 in 10.0 mi East 8.1 mph - N/A   Overcast
1:51 AM 68.0 °F - 59.0 °F 73% 30.05 in 10.0 mi East 5.8 mph - N/A   Overcast
1:53 AM 68.0 °F - 60.1 °F 76% 30.00 in 10.0 mi East 5.8 mph - N/A   Overcast
2:53 AM 68.0 °F - 62.1 °F 81% 30.00 in 10.0 mi SE 6.9 mph - N/A   Overcast
3:36 AM 66.9 °F - 62.1 °F 84% 30.03 in 10.0 mi ESE 4.6 mph - N/A   Overcast
3:53 AM 66.9 °F - 62.1 °F 84% 29.98 in 10.0 mi ESE 3.5 mph - N/A   Overcast
4:02 AM 66.9 °F - 62.1 °F 84% 30.03 in 10.0 mi SSE 3.5 mph - N/A   Overcast
4:30 AM 66.9 °F - 62.1 °F 84% 30.03 in 10.0 mi SSE 3.5 mph - N/A   Overcast
4:53 AM 66.0 °F - 62.1 °F 87% 29.99 in 10.0 mi SSW 4.6 mph - N/A   Overcast
5:51 AM 64.4 °F - 62.6 °F 94% 30.02 in 10.0 mi South 5.8 mph - N/A   Scattered Clouds
5:53 AM 64.9 °F - 62.1 °F 90% 29.98 in 10.0 mi South 4.6 mph - N/A   Partly Cloudy
6:38 AM 64.0 °F - 61.0 °F 90% 30.01 in 8.0 mi SW 3.5 mph - N/A   Partly Cloudy
6:53 AM 63.0 °F - 61.0 °F 93% 29.98 in 9.0 mi Calm Calm - N/A   Partly Cloudy
7:53 AM 64.0 °F - 61.0 °F 90% 29.98 in 8.0 mi SSW 3.5 mph - N/A   Clear
8:15 AM 66.0 °F - 62.1 °F 87% 30.03 in 9.0 mi South 6.9 mph - N/A   Partly Cloudy
8:28 AM 66.0 °F - 62.1 °F 87% 30.03 in 9.0 mi SSE 3.5 mph - N/A   Mostly Cloudy
8:41 AM 66.0 °F - 62.1 °F 87% 30.03 in 9.0 mi South 5.8 mph - N/A   Overcast
8:53 AM 66.0 °F - 62.1 °F 87% 29.99 in 9.0 mi South 5.8 mph - N/A   Overcast
9:19 AM 68.0 °F - 62.1 °F 81% 30.03 in 10.0 mi SSW 6.9 mph - N/A   Overcast
9:38 AM 69.1 °F - 62.1 °F 78% 30.03 in 10.0 mi South 5.8 mph - N/A   Scattered Clouds
9:53 AM 70.0 °F - 62.1 °F 76% 29.98 in 10.0 mi South 8.1 mph - N/A   Partly Cloudy
10:53 AM 73.9 °F - 61.0 °F 64% 29.99 in 10.0 mi South 8.1 mph - N/A   Clear
11:53 AM 77.0 °F - 59.0 °F 54% 29.97 in 10.0 mi Variable 4.6 mph - N/A   Clear
12:53 PM 81.0 °F 81.1 °F 57.9 °F 45% 29.94 in 10.0 mi South 6.9 mph - N/A   Clear
1:53 PM 82.9 °F 82.4 °F 57.0 °F 41% 29.92 in 10.0 mi SE 8.1 mph - N/A   Clear
2:53 PM 84.0 °F 83.0 °F 55.9 °F 38% 29.90 in 10.0 mi SSW 6.9 mph - N/A   Partly Cloudy
3:53 PM 87.1 °F 85.7 °F 55.9 °F 35% 29.87 in 10.0 mi South 8.1 mph - N/A   Scattered Clouds
4:53 PM 84.9 °F 83.3 °F 54.0 °F 34% 29.84 in 10.0 mi South 5.8 mph - N/A   Clear
5:53 PM 84.0 °F - 51.1 °F 32% 29.83 in 10.0 mi SSE 8.1 mph - N/A   Clear
6:53 PM 82.9 °F - 50.0 °F 32% 29.83 in 10.0 mi SE 10.4 mph - N/A   Clear
7:53 PM 80.1 °F - 52.0 °F 38% 29.86 in 10.0 mi SE 9.2 mph - N/A   Clear
8:53 PM 75.9 °F - 54.0 °F 46% 29.88 in 10.0 mi SE 6.9 mph - N/A   Clear
9:53 PM 73.9 °F - 55.0 °F 52% 29.91 in 10.0 mi SSE 6.9 mph - N/A   Clear
10:53 PM 71.1 °F - 57.9 °F 63% 29.93 in 10.0 mi SSE 5.8 mph - N/A   Clear
11:53 PM 70.0 °F - 60.1 °F 71% 29.91 in 10.0 mi SSE 9.2 mph - N/A   Clear